Theta_e
337 337 338 337 336 336 336 335 335 334 331 333 336 336 334 334 335 335 332 332 331 330 327 328 328 326 326 327 325 323 322 325 325 325 323 321 321 320 319 318 309 307 306
337 338 338 338 336 337 335 335 336 336 334 335 335 332 334 332 332 334 334 332 332 330 329 327 327 327 328 326 325 322 324 324 324 323 323 322 320 320 318 317 308 308 306
338 338 337 338 337 337 337 335 335 336 334 334 333 333 332 333 334 332 332 332 332 331 329 328 327 326 326 328 326 323 324 323 320 320 323 322 320 320 319 314 308 305 306
336 342 340 336 336 336 337 336 335 335 334 333 333 333 332 333 333 332 331 332 330 331 329 330 328 326 326 326 328 323 325 324 321 321 323 322 321 318 319 316 309 305 307
335 339 341 338 337 338 340 337 335 335 334 333 333 334 333 332 332 331 331 332 331 330 329 330 330 328 326 326 327 324 327 327 324 321 322 323 321 320 316 316 310 306 305
332 335 340 339 341 336 337 336 335 336 336 334 336 333 332 332 332 331 331 331 330 330 330 330 329 329 328 326 326 327 327 326 326 324 322 322 321 319 315 317 312 307 306
332 331 339 337 338 338 336 335 335 335 337 333 334 336 335 334 332 331 332 331 331 330 330 329 329 329 329 327 326 326 326 326 326 326 321 321 320 318 316 312 312 310 306
337 330 334 336 334 330 338 338 340 335 333 333 333 333 333 332 332 330 329 330 330 330 329 328 328 328 328 327 327 326 326 325 326 325 322 319 318 319 316 317 314 312 309
334 335 329 338 336 328 328 335 340 337 331 332 333 333 331 331 329 330 330 330 329 330 330 330 328 329 328 327 328 326 326 326 326 325 324 320 318 317 317 316 316 313 313
338 334 334 329 335 331 327 328 332 329 330 331 335 332 330 332 331 331 331 332 331 327 328 329 328 331 328 326 327 327 325 326 325 325 324 323 319 318 318 316 315 311 314
334 335 332 330 335 335 331 330 334 334 331 333 334 330 331 328 329 331 330 332 331 331 329 327 325 328 324 328 327 327 326 325 326 325 324 323 321 319 317 316 316 313 316
337 336 336 335 331 335 334 333 333 336 334 333 332 330 326 327 326 328 330 328 329 329 327 329 329 326 325 326 326 327 326 324 324 325 325 323 322 319 318 317 317 316 315
337 336 338 338 337 336 336 338 337 335 337 333 332 330 327 325 328 328 330 330 330 330 329 328 327 327 327 326 326 326 325 324 324 324 324 324 322 321 319 318 317 316 316
322 323 333 336 335 336 335 336 337 336 335 334 332 332 329 329 329 330 328 329 330 329 327 327 328 328 328 325 325 325 325 324 324 324 324 324 322 322 321 319 317 317 317
319 319 332 334 334 333 334 334 335 334 334 334 334 332 333 330 328 326 329 330 329 328 327 327 328 328 328 326 325 324 325 325 323 323 324 323 321 321 317 320 318 317 317
324 325 329 330 331 333 332 331 331 332 333 334 334 334 334 333 332 329 329 330 325 326 328 326 328 328 328 327 324 323 323 324 323 323 323 323 322 320 320 321 319 318 317
323 325 326 328 328 331 332 330 331 330 330 330 332 332 333 333 332 330 330 329 329 329 329 328 329 328 326 325 325 323 323 323 322 322 323 323 323 322 319 320 320 319 318
318 318 322 322 325 326 328 328 328 328 328 329 330 332 333 337 332 331 331 331 328 329 330 329 328 328 327 326 326 324 324 324 322 322 322 323 324 322 319 319 320 320 318
311 313 316 316 318 320 321 322 323 325 326 327 328 329 330 332 332 331 331 327 325 329 330 329 324 327 327 326 326 325 323 323 323 321 322 322 324 322 319 319 320 319 318
307 307 308 309 309 311 312 314 317 319 321 325 324 325 325 328 328 329 327 327 327 329 329 328 327 326 327 326 325 323 322 323 322 322 322 321 323 323 320 319 321 318 317
301 304 304 304 307 306 306 309 312 314 315 316 316 319 318 321 321 325 326 327 327 328 328 327 327 325 326 326 325 324 322 322 322 321 321 321 322 322 320 320 317 317 317
300 301 302 303 303 303 304 306 307 307 308 308 311 313 310 313 319 321 324 325 326 326 326 326 324 325 324 325 325 323 322 322 321 321 321 321 321 321 319 318 318 318 318
294 294 295 297 298 298 299 300 301 300 303 303 307 308 307 308 309 312 316 319 321 324 324 324 323 324 325 325 324 323 322 322 321 321 321 320 321 320 320 319 318 317 317
293 292 292 293 293 293 295 296 297 298 298 299 299 300 301 303 305 307 308 310 311 315 318 321 323 323 323 324 323 322 322 322 321 321 320 320 320 320 318 318 317 318 318
289 289 289 290 290 290 291 292 294 294 294 295 295 296 298 299 301 302 304 305 307 309 311 312 311 319 320 322 322 320 322 321 321 320 320 320 319 318 317 317 318 318 317
286 287 287 287 287 288 289 290 291 291 292 292 292 293 294 295 296 298 299 301 303 303 306 308 310 310 311 314 321 320 321 321 321 320 320 319 319 319 315 315 315 317 316
Wind_Speed
26 28 24 24 20 20 17 17 12 9 12 13 14 12 9 11 7 8 7 9 9 8 9 11 9 14 14 14 15 13 13 14 15 12 11 13 14 14 15 14 15 16 16
28 28 27 25 24 21 20 19 18 17 14 17 16 15 13 13 12 13 10 11 11 10 10 12 13 13 15 15 14 17 16 14 15 15 15 15 16 16 15 16 17 17 18
30 29 27 30 27 23 24 23 22 23 20 20 16 17 17 15 12 12 14 14 12 12 13 13 16 16 13 15 18 19 18 18 18 17 18 18 17 18 18 18 19 19 18
34 29 30 27 29 24 24 25 25 25 22 19 18 19 18 18 17 17 16 17 16 16 16 16 17 20 18 16 20 21 14 18 19 21 22 21 21 19 21 20 20 21 20
37 33 30 25 25 28 24 25 25 26 26 24 20 21 23 21 19 20 19 21 20 20 18 17 18 19 22 21 19 26 22 19 20 21 24 24 24 22 24 23 22 23 22
43 40 32 37 29 29 33 28 27 25 24 20 18 17 17 19 20 22 22 22 22 21 22 23 21 22 22 24 23 26 25 23 23 25 26 26 26 24 26 25 25 25 24
36 45 39 38 38 29 27 30 31 34 30 25 22 20 17 19 21 23 25 24 24 23 22 25 29 25 23 24 27 26 26 23 24 28 28 28 27 25 27 27 26 26 27
38 36 45 39 36 41 31 30 31 28 30 25 25 23 21 23 26 24 25 28 27 25 23 22 22 25 24 25 25 27 28 27 26 28 30 29 27 29 27 28 28 27 28
40 39 42 42 38 34 35 34 34 32 29 28 26 19 9 12 9 14 18 18 17 26 24 24 24 28 26 26 25 25 25 29 29 32 32 30 29 29 28 30 29 28 28
45 45 40 45 38 37 35 35 35 34 30 33 29 34 23 10 4 3 12 14 12 11 26 26 27 28 29 27 26 26 25 29 33 35 37 34 32 30 29 30 30 31 30
50 48 42 35 37 37 34 31 30 32 32 30 30 27 32 30 27 22 17 12 15 15 14 23 27 35 34 27 30 31 28 26 30 36 40 39 34 32 28 28 29 31 30
37 38 34 26 27 35 30 25 30 32 31 33 31 29 28 26 29 34 32 31 28 25 22 20 21 21 22 24 29 29 27 26 27 34 43 43 38 34 30 28 28 30 31
34 19 35 26 22 22 27 27 28 31 30 28 34 33 32 34 29 30 30 27 21 25 18 22 29 26 24 24 25 29 29 27 28 33 43 45 43 38 33 30 29 30 30
27 32 11 18 22 23 29 27 29 27 30 31 28 34 37 35 34 33 30 22 20 23 22 27 27 29 27 28 27 26 28 29 28 31 37 45 43 41 35 33 32 33 32
14 27 15 10 14 18 27 29 31 29 33 33 31 32 37 41 38 38 34 30 21 27 30 29 32 34 31 28 26 25 27 28 26 30 35 41 42 42 37 38 34 34 34
10 11 11 13 13 14 15 15 21 24 29 32 36 33 38 43 40 35 38 34 29 38 37 34 31 30 29 27 27 26 28 27 26 30 38 43 44 43 42 42 39 36 34
6 12 9 12 20 16 15 13 15 15 21 29 35 37 39 40 39 39 38 39 41 38 42 40 38 33 27 28 32 29 28 27 31 31 37 45 47 46 44 44 41 39 36
14 11 8 3 8 15 13 17 16 18 22 24 27 35 38 40 42 39 35 35 39 43 40 40 35 37 34 36 35 34 32 30 31 30 34 40 46 49 47 45 44 41 39
27 22 18 9 5 4 7 9 12 17 17 19 21 24 28 35 37 38 34 36 37 45 42 43 41 43 41 38 33 34 37 37 32 31 33 35 44 54 50 47 47 45 43
28 28 26 24 22 20 17 13 9 10 14 17 21 23 20 26 29 29 29 33 35 43 46 43 41 45 41 39 34 36 37 34 32 32 32 32 35 46 50 50 48 47 43
32 32 29 29 27 28 30 24 21 18 15 14 14 17 17 19 22 28 31 30 31 38 42 46 43 39 39 42 42 41 37 32 29 32 31 31 31 45 49 49 47 46 47
35 30 29 29 30 29 29 28 21 23 22 20 16 17 19 18 26 26 30 32 35 37 35 43 41 43 41 44 45 42 36 32 30 32 31 31 34 39 43 45 47 46 46
34 34 34 31 31 29 26 25 25 22 23 21 21 19 20 22 24 24 24 30 32 36 41 41 37 41 43 47 45 39 39 37 34 34 33 38 40 40 40 42 45 46 48
34 34 34 33 31 31 28 25 25 26 27 27 27 27 26 26 26 26 25 23 25 28 33 36 43 46 38 41 32 31 37 34 32 37 39 40 47 45 45 46 47 48 48
32 32 31 31 32 31 31 29 27 27 26 27 27 27 28 27 27 27 26 24 20 21 21 26 31 38 44 44 38 35 34 34 35 41 41 40 44 47 49 48 45 44 42
29 28 28 30 30 30 30 31 31 31 30 29 28 28 29 30 30 30 30 29 27 24 23 23 21 24 27 28 31 37 41 39 42 43 45 44 46 45 42 44 43 45 44
Wind_Direction
212 218 219 221 223 223 219 225 243 230 229 197 225 220 226 223 238 282 258 286 287 288 241 227 240 216 226 247 228 203 218 224 224 237 243 223 214 204 204 198 191 187 185
211 223 217 217 219 213 216 213 214 226 224 221 227 228 225 236 228 250 265 271 270 282 272 250 242 245 242 236 239 219 229 234 237 240 235 235 217 202 199 202 194 189 187
206 223 222 219 218 214 215 210 214 220 222 234 232 231 231 233 240 244 251 254 266 264 275 263 250 249 250 242 234 224 239 232 233 237 229 238 220 207 206 210 199 196 191
206 212 223 224 222 215 223 221 212 216 217 219 230 231 232 232 235 233 248 251 259 259 269 265 256 251 244 242 233 228 239 235 233 231 227 229 234 211 206 207 208 200 195
210 204 215 225 220 209 214 224 218 216 220 220 224 234 235 232 234 241 243 244 252 257 261 254 259 254 247 244 238 228 246 251 237 235 231 228 240 246 211 207 206 206 199
217 206 213 214 213 213 218 220 225 220 221 209 222 240 246 241 240 239 242 244 247 247 253 259 255 250 249 245 240 235 241 250 245 237 231 234 240 239 218 208 209 206 203
229 208 213 220 215 214 219 224 220 220 214 213 210 222 228 237 244 243 245 242 243 245 245 245 255 257 250 248 244 241 240 248 246 235 230 232 237 234 217 213 212 208 208
233 221 211 227 226 214 207 219 218 224 223 225 220 229 235 240 252 254 253 249 247 245 251 254 251 260 264 254 247 246 244 245 243 234 233 229 233 229 225 219 215 211 211
229 230 217 214 226 221 219 220 223 225 222 220 221 216 210 227 233 254 245 240 249 241 241 245 255 251 253 256 251 249 249 244 240 234 232 229 230 228 228 221 220 216 214
213 227 223 214 219 228 224 225 230 232 226 220 220 225 217 200 218 230 242 242 251 248 234 240 240 242 249 252 254 252 252 250 242 234 233 234 227 227 226 226 225 225 216
220 222 226 218 211 227 229 224 233 235 231 220 223 229 231 234 238 245 243 231 255 263 254 256 251 248 258 247 250 256 257 251 242 235 233 232 227 226 222 227 230 233 220
209 216 219 214 216 225 233 223 226 243 240 228 226 239 235 233 246 236 240 247 241 254 269 272 265 261 269 255 253 256 257 252 245 236 231 229 226 221 221 225 231 233 229
194 210 208 199 211 221 230 230 223 239 243 239 224 234 243 252 242 247 241 243 240 244 244 262 273 266 260 264 257 259 259 253 254 241 231 227 225 221 222 223 228 233 234
238 243 17 185 212 221 232 233 239 240 252 251 244 235 245 242 242 241 246 244 238 254 266 251 256 245 253 270 261 260 256 257 252 243 229 225 224 223 223 227 225 228 233
201 213 252 195 219 235 233 235 240 246 250 249 247 243 241 242 240 253 242 238 242 261 259 256 253 251 257 262 260 266 268 259 249 240 231 224 224 223 221 229 227 226 226
178 238 233 221 224 233 232 247 249 246 247 251 252 252 250 248 256 255 254 242 259 253 251 258 250 253 252 247 263 263 277 261 248 243 230 228 230 227 225 226 227 227 226
206 242 240 247 241 237 238 234 237 249 261 252 253 256 255 254 254 257 255 255 256 255 246 259 260 259 244 246 264 270 271 261 258 247 233 234 230 233 227 225 227 229 227
97 85 116 237 233 242 241 237 248 252 254 255 259 261 260 259 260 262 258 256 276 254 252 261 266 253 236 250 264 265 266 258 262 249 241 235 243 227 225 225 226 229 230
64 62 66 50 31 326 293 277 270 258 258 256 252 257 259 266 270 270 263 271 257 256 258 256 267 263 259 263 261 256 260 263 255 252 246 243 235 228 223 221 225 227 230
66 63 56 48 44 40 35 25 353 323 290 272 273 258 265 259 260 262 271 270 269 265 265 257 260 262 257 258 255 253 257 255 253 251 248 244 236 235 222 223 226 229 230
63 58 57 51 44 35 32 24 18 9 0 328 317 292 283 267 267 259 263 264 257 262 256 247 244 243 244 249 251 255 253 252 255 254 251 248 245 223 220 221 225 226 232
63 61 59 54 48 46 38 27 19 16 8 6 358 348 338 319 273 271 259 254 259 261 267 263 262 253 253 252 253 253 247 239 242 247 250 245 221 224 227 222 229 235 240
56 54 53 53 48 45 41 35 36 33 32 16 14 1 347 352 340 326 303 285 279 263 261 263 264 256 256 246 240 247 244 241 240 246 241 238 227 220 222 228 229 234 243
42 42 42 42 41 40 36 33 32 29 26 23 20 14 8 1 354 338 332 325 322 298 282 270 266 266 266 241 249 254 254 251 249 244 240 231 228 230 231 230 236 244 246
40 37 35 34 33 31 28 26 26 27 25 22 17 12 7 3 359 350 348 343 322 316 312 289 280 267 258 255 241 244 243 241 238 237 234 238 234 227 229 236 241 244 244
40 37 33 31 28 26 22 18 16 14 15 14 12 11 9 5 1 355 351 347 343 343 323 310 304 287 275 248 230 223 225 234 237 233 231 231 232 231 224 229 231 237 238